Presure
134 139 143 138 138 151 149 152 165 142 159 159 164 172 158 189 144 166 189 151 209 177 224 123 254 153 245 364 440 186 182 258 156 271 191 111 142 135 143 121 127 134 155 117 126
149 140 149 158 127 148 162 158 145 145 156 153 149 161 173 148 168 187 160 197 188 227 255 232 220 218 252 392 253 221 176 409 136 446 282 162 218 191 109 130 83 129 162 158 114
149 121 150 136 150 145 150 148 156 165 157 152 168 157 184 181 185 168 214 151 196 238 245 131 181 230 257 359 242 177 141 123 126 102 168 141 141 158 116 160 117 109 121 121 160
141 154 150 166 148 152 135 150 153 165 159 146 174 158 150 176 182 158 148 211 158 116 228 186 143 119 259 132 295 193 143 139 391 447 173 318 213 138 129 168 110 126 116 160 107
137 152 133 156 142 144 136 157 152 151 160 172 166 167 178 185 193 194 169 190 208 186 137 203 137 256 134 302 405 274 160 140 304 158 144 173 164 119 127 177 118 123 152 143 118
134 157 139 138 141 141 150 149 149 153 159 153 164 166 168 152 177 182 157 192 169 191 130 234 250 117 343 136 172 175 155 137 120 159 141 432 398 116 136 255 132 156 184 129 193
160 138 141 151 141 148 153 137 152 156 162 163 158 158 150 167 170 183 138 216 165 166 149 118 133 138 403 170 141 141 160 261 160 134 134 269 344 395 124 147 133 150 148 111 127
175 149 141 143 151 158 142 152 149 148 150 170 153 152 169 191 139 166 185 214 207 124 125 121 251 215 364 158 117 337 191 353 150 356 172 121 114 175 131 122 121 108 120 160 117
171 141 125 138 149 149 137 149 150 150 131 142 151 159 162 136 173 140 174 143 154 139 182 199 127 186 294 156 205 323 360 348 410 278 311 360 124 110 381 114 115 116 108 128 157
149 129 119 144 142 143 137 137 158 149 144 130 149 157 148 136 177 187 179 215 160 153 204 128 164 147 140 213 154 291 344 348 417 401 396 415 168 120 127 160 321 136 151 133 162
148 132 128 133 151 153 166 149 139 156 135 152 159 142 152 167 142 196 142 193 126 109 152 155 205 241 144 140 149 343 353 350 416 400 409 390 361 127 361 118 412 145 124 130 182
140 132 142 157 147 144 143 138 137 149 150 162 149 152 182 170 174 134 154 141 163 133 174 222 158 340 133 156 151 339 334 386 413 410 391 365 350 343 343 359 365 336 320 192 235
156 140 135 139 144 146 145 133 150 165 162 135 153 166 158 172 180 188 211 204 156 173 190 202 184 224 167 347 269 336 341 412 406 417 373 379 347 350 360 389 352 354 307 311 145
144 146 157 136 159 155 123 153 150 142 140 160 152 148 165 168 188 179 163 141 158 141 212 234 137 139 147 348 353 332 326 403 399 413 356 349 348 339 343 374 353 347 271 134 377
147 146 139 149 136 125 138 144 152 169 143 148 161 165 159 189 179 203 178 149 174 143 232 246 146 153 413 375 351 326 328 398 395 377 338 319 320 351 348 356 370 362 359 372 369
146 140 147 147 129 142 130 128 130 149 176 159 161 159 158 169 185 163 178 199 221 217 237 151 240 136 390 141 344 325 327 395 397 348 327 316 322 353 346 349 364 349 361 365 370
142 144 141 132 142 121 179 121 149 145 162 153 162 154 159 131 179 165 138 204 196 145 149 244 141 158 126 368 343 323 339 389 394 352 317 323 341 352 343 336 334 349 367 370 227
133 150 154 136 146 130 139 136 164 172 157 169 170 139 165 169 142 175 134 147 189 232 140 248 406 169 367 147 341 320 347 387 400 355 321 329 340 362 318 303 315 331 360 383 320
137 145 143 136 123 124 169 140 147 175 127 167 130 192 181 181 198 194 187 178 212 152 315 296 169 336 135 364 337 324 348 379 381 372 338 339 333 322 301 307 316 335 363 318 322
129 148 127 148 131 130 149 140 155 178 158 147 166 180 171 158 174 185 182 190 187 247 142 198 173 197 129 361 335 315 360 374 376 374 362 344 310 301 293 307 320 321 306 299 322
145 132 126 144 136 164 136 157 146 179 170 169 164 161 143 178 155 147 160 207 226 214 268 176 397 149 364 259 335 315 374 368 374 362 370 334 308 296 301 305 320 336 298 304 266
128 148 151 162 154 151 148 111 140 150 160 185 160 182 128 189 193 210 177 174 188 231 151 199 271 314 173 374 333 311 357 367 369 366 379 322 302 298 296 302 328 338 303 258 240
143 154 153 137 176 139 139 159 157 155 154 165 178 132 174 113 176 171 158 147 146 282 313 380 119 123 137 382 332 313 369 339 365 369 376 319 299 299 295 324 299 297 276 251 244
121 145 154 154 139 150 124 151 131 170 179 121 169 125 179 167 188 207 216 230 227 303 310 135 258 224 148 222 333 314 311 376 368 375 368 312 297 299 299 307 298 285 252 242 231
131 160 157 138 161 153 149 160 140 140 174 173 196 141 142 187 203 210 236 234 222 171 190 362 372 355 126 339 335 315 312 370 371 378 339 301 296 300 300 309 313 235 250 240 231
158 162 154 169 132 135 140 174 172 142 187 190 160 136 169 205 216 219 147 286 296 310 148 126 367 133 350 398 337 313 310 375 373 375 317 302 297 291 302 297 259 252 246 241 228
140 150 169 153 142 143 139 186 173 178 171 128 194 196 197 134 224 241 256 271 301 308 205 148 329 136 213 240 344 315 304 352 377 380 316 303 302 303 300 291 267 239 223 233 230
Wind_Speed
29 34 43 36 33 50 49 52 54 39 55 52 51 59 40 69 46 42 71 47 75 60 74 26 113 22 70 46 43 35 36 38 54 42 46 20 58 36 57 39 40 45 43 31 35
43 39 41 42 35 44 52 57 46 47 60 52 40 50 66 42 46 68 33 75 59 92 121 83 93 87 105 50 39 45 34 34 62 31 38 56 42 46 36 29 18 41 40 44 41
44 37 49 38 52 52 56 57 63 62 63 51 72 48 76 76 74 41 90 47 71 106 109 32 49 98 113 86 46 24 54 20 66 15 46 67 70 50 41 66 48 31 39 34 51
45 45 42 43 54 57 47 62 64 68 71 43 75 57 44 68 71 42 53 88 54 40 96 45 39 35 122 21 39 40 55 45 28 23 36 29 57 62 55 70 24 52 40 44 24
46 44 41 50 54 57 48 64 65 67 73 74 76 71 76 82 87 86 56 77 87 64 39 84 23 135 18 29 36 26 21 65 25 37 55 34 66 54 40 63 38 42 53 41 34
44 47 51 51 47 55 64 66 64 67 65 67 68 74 70 46 64 60 40 81 62 72 31 109 132 26 47 24 43 30 24 52 52 51 49 30 37 35 58 54 60 57 59 50 59
45 49 55 57 57 64 64 52 71 71 78 79 73 68 47 67 67 86 46 105 60 47 47 21 27 20 40 33 24 30 34 32 56 42 59 47 31 28 53 65 67 61 63 29 49
53 52 54 57 60 58 57 71 72 62 72 80 69 57 81 92 45 57 84 107 94 19 35 28 142 78 37 31 45 31 37 29 58 18 39 62 61 52 65 56 61 31 60 55 46
49 54 41 57 63 64 55 65 71 72 47 57 66 79 70 50 73 49 81 53 46 38 76 87 20 53 124 29 36 29 23 28 14 34 26 26 71 49 50 57 52 47 38 62 64
43 44 40 61 62 64 57 56 75 71 60 50 65 73 48 51 89 87 64 115 42 44 100 33 45 29 27 36 36 30 28 27 7 9 10 21 54 67 65 55 82 78 65 66 62
45 51 44 53 66 67 63 70 55 84 59 78 75 52 62 87 49 105 52 89 33 24 49 44 96 122 25 32 37 30 24 23 5 7 15 37 32 78 30 63 59 82 78 80 82
53 54 50 60 66 58 66 56 57 62 77 85 68 67 95 84 86 45 55 49 60 44 46 115 42 51 29 40 44 30 29 12 3 6 19 36 34 34 41 45 78 79 76 80 82
46 53 63 56 65 69 68 49 78 82 86 55 77 93 75 91 92 105 127 111 56 65 87 98 66 70 36 35 32 27 25 2 4 9 25 39 35 32 35 38 78 85 78 75 86
54 61 60 60 65 69 43 81 77 68 62 89 81 73 91 88 106 89 51 52 46 44 115 136 32 40 34 29 26 25 24 4 8 22 32 26 25 30 33 37 71 74 76 87 69
57 63 58 61 56 44 63 74 77 87 68 76 94 93 77 106 99 124 79 47 71 49 136 148 39 34 34 28 24 23 20 6 14 32 30 23 22 30 41 37 58 69 69 67 67
62 63 66 69 42 65 46 49 60 77 89 93 93 83 79 94 108 74 89 112 134 119 146 39 109 33 33 37 22 20 17 10 18 30 35 33 28 36 42 40 43 63 57 58 65
63 65 60 47 71 47 88 53 81 71 97 88 93 82 82 45 104 79 50 121 94 49 41 138 35 34 31 25 20 17 11 12 20 39 33 38 31 35 50 44 47 46 49 55 78
60 72 74 55 72 50 68 65 87 91 87 97 100 59 95 100 53 78 45 49 58 153 35 116 60 46 36 38 18 15 6 12 20 41 38 42 36 40 51 48 45 44 46 55 74
67 68 72 55 45 49 88 73 87 98 45 97 55 116 109 110 122 115 101 43 126 50 92 97 40 49 33 21 16 14 4 15 24 31 47 47 49 55 54 50 49 47 28 71 82
52 77 41 78 59 55 83 78 84 99 91 75 93 105 104 79 98 90 97 79 80 141 32 75 50 34 31 19 14 11 5 14 22 23 35 53 53 56 57 53 50 58 71 80 85
71 58 43 78 69 94 72 96 91 103 98 102 100 78 61 108 61 49 36 132 143 115 95 42 51 33 34 23 12 9 11 18 23 32 31 57 58 59 56 58 51 52 81 92 92
43 85 84 88 89 80 98 36 73 93 90 115 96 115 32 117 120 139 57 59 92 134 30 38 38 37 28 19 11 8 13 21 26 32 34 60 63 62 61 62 38 44 89 91 87
88 93 91 67 116 76 71 104 102 98 91 89 107 43 111 35 92 48 32 45 48 95 117 71 24 32 40 19 10 9 18 18 30 35 40 65 66 67 66 44 75 86 101 97 98
49 93 90 93 71 85 56 107 58 104 110 31 106 37 114 87 109 131 144 140 130 104 119 31 37 31 35 30 8 10 12 27 32 34 45 69 67 65 67 65 80 96 101 100 100
69 108 98 72 96 93 100 103 70 73 110 103 131 51 56 120 139 134 154 153 95 40 49 59 44 35 31 21 9 12 15 26 32 33 68 68 67 66 69 61 55 95 110 108 108
111 116 102 115 57 61 86 109 108 80 123 123 96 64 95 143 148 151 48 92 107 119 26 28 43 28 26 21 10 15 18 30 34 37 75 71 70 70 68 70 103 111 113 115 115
84 97 119 91 78 77 81 123 109 115 109 58 128 132 129 36 151 132 120 100 113 121 81 29 38 28 26 20 10 17 20 31 36 40 72 71 69 70 74 78 102 111 103 121 118
Wind_Direction
316 330 335 317 315 332 329 328 329 315 331 329 332 334 323 339 296 336 337 294 344 312 343 218 353 315 337 309 311 300 297 281 215 260 259 237 234 223 230 244 242 245 239 213 231
330 329 327 335 301 322 335 328 320 321 332 325 324 325 334 303 340 332 321 340 333 347 349 354 351 341 351 319 251 290 240 300 228 264 239 222 221 193 245 217 217 244 212 228 241
326 296 325 317 327 329 328 329 327 330 330 328 333 328 333 333 337 338 344 299 341 346 348 270 339 351 350 340 294 242 210 270 242 242 208 232 232 214 239 221 243 243 241 231 224
324 321 324 319 326 323 314 327 327 329 329 319 330 333 308 333 336 303 300 342 303 287 348 332 306 292 350 218 301 286 207 221 293 279 224 231 235 231 235 211 218 240 220 236 234
321 321 315 322 327 325 323 324 327 327 327 329 331 330 336 334 335 337 329 341 339 331 292 335 285 351 284 291 321 301 256 223 276 225 224 227 206 231 252 221 235 233 235 243 252
315 319 323 323 320 325 323 325 328 325 327 329 327 329 328 315 333 337 310 338 329 332 296 352 352 243 330 267 258 283 266 234 242 228 215 209 223 243 231 219 228 218 222 242 219
313 318 320 317 324 321 322 326 324 325 324 326 330 330 319 335 336 334 318 344 332 315 312 251 289 314 328 305 264 265 277 271 231 279 222 230 241 212 239 209 224 219 211 249 248
311 311 318 319 317 322 322 321 326 319 329 327 331 327 333 332 308 330 338 343 345 287 291 282 350 335 330 308 238 316 291 320 228 289 282 248 268 260 225 249 246 256 263 199 220
309 317 310 322 318 319 320 324 324 326 309 326 332 332 323 316 335 308 331 313 320 303 333 341 291 319 348 310 311 318 315 322 300 274 260 234 248 270 201 263 263 263 250 241 199
312 307 296 318 318 319 321 323 320 325 325 308 329 332 322 314 336 333 336 341 317 315 342 300 324 311 308 316 300 309 327 322 265 272 200 182 252 252 244 246 200 227 212 229 203
308 308 309 316 311 314 322 319 323 321 314 325 328 323 333 335 316 334 315 337 274 259 317 315 336 344 309 298 301 329 327 326 236 229 177 168 179 244 176 250 192 212 241 234 201
309 309 308 307 312 317 313 315 317 314 322 324 327 333 327 333 328 322 315 313 331 297 323 343 315 336 301 305 303 330 329 331 219 183 160 171 179 191 180 184 182 195 203 223 202
312 307 308 309 313 315 316 319 320 324 322 318 328 326 334 330 328 333 337 335 313 336 337 341 333 338 315 333 321 330 328 112 150 149 169 174 186 185 181 190 186 193 207 207 208
303 306 312 309 318 312 303 314 317 323 322 321 325 323 330 333 331 329 326 308 329 319 340 343 315 315 311 334 335 330 333 110 115 135 164 167 188 187 183 186 194 197 204 220 199
299 307 304 309 315 303 317 317 321 317 326 326 323 325 330 329 331 334 333 306 326 320 342 341 317 320 348 341 336 334 335 125 137 162 135 142 188 184 184 194 195 191 199 201 193
296 301 306 307 297 309 305 304 314 318 324 321 324 323 326 331 329 328 334 335 337 339 338 321 338 317 346 320 336 336 334 132 150 156 158 171 186 195 186 182 188 198 199 196 191
298 299 301 303 309 292 323 297 318 316 318 323 323 323 327 331 328 328 317 332 330 313 320 341 309 327 310 338 332 335 323 151 157 166 184 181 188 194 180 173 180 189 192 193 200
297 300 308 307 307 310 315 318 316 321 321 317 320 318 326 327 331 327 308 316 345 335 301 339 353 319 343 321 330 333 305 150 161 175 188 182 181 184 158 169 178 184 193 192 176
296 306 301 306 289 294 316 316 316 321 326 317 322 325 321 323 327 329 330 349 332 318 346 344 322 344 310 337 330 328 294 155 159 173 184 180 166 158 160 177 180 182 183 174 174
302 297 292 302 294 312 311 314 315 324 319 321 322 324 321 327 325 331 330 333 326 333 307 331 324 325 311 337 324 320 196 163 165 162 186 176 162 160 170 176 179 165 171 172 174
299 302 291 303 298 310 308 307 314 320 316 315 319 325 322 322 329 322 331 328 330 331 336 337 351 320 343 324 314 301 196 172 165 173 186 174 164 168 176 177 182 177 172 170 171
300 296 298 308 302 311 305 322 312 313 314 321 321 321 318 323 323 324 343 326 324 333 320 323 337 340 330 337 299 275 207 179 169 182 191 170 167 171 175 175 173 180 170 168 177
293 299 298 302 306 309 307 306 307 312 318 317 316 320 320 287 325 334 317 312 311 348 350 347 303 312 318 337 285 256 201 193 184 188 187 170 172 174 175 175 173 173 167 171 173
289 294 299 297 295 301 311 303 308 315 315 320 316 305 319 328 324 323 323 325 328 348 349 297 329 324 311 316 261 236 215 194 190 192 184 171 175 179 178 179 178 172 170 173 179
293 293 293 299 301 298 302 301 308 312 314 314 316 327 316 321 318 322 322 325 331 340 336 343 344 342 312 327 249 223 209 199 195 194 177 175 178 183 181 183 178 177 172 175 178
290 293 292 298 297 296 301 307 307 307 313 315 317 304 319 317 317 319 303 339 344 345 307 293 341 308 333 330 241 216 205 200 196 193 176 178 180 179 182 184 174 173 175 177 182
288 290 295 293 301 303 303 306 305 308 309 300 316 316 317 307 317 322 325 334 345 342 326 305 338 309 309 306 241 213 205 202 197 193 182 182 182 188 184 183 176 178 187 181 185